When you browse on this site, cookies collect data to enhance your experience and personalize the content and advertising you see.
Visit our Privacy Policy to learn more. By continuing to use the site, you agree to this use of cookies and data.
  • In Sweden
  • List of Countries
  • For 7 days
  • Water Temperature
  • Satellite Maps
  • Weather Map
  • Weather Widgets
  • user-avatar
    Login

    Hourly Weather Terenkol

    Today, 23 April, Tuesday

    Time Temperature Precipitation Wind Pressure Humidity
    00:00 +7°C° 0 mm 1 mps 758 mmHg 46%
    01:00 +7°C° 0 mm 1 mps 758 mmHg 47%
    02:00 +6°C° 0 mm 1 mps 758 mmHg 48%
    03:00 +6°C° 0 mm 1 mps 758 mmHg 49%
    04:00 +5°C° 0 mm 1 mps 757 mmHg 50%
    05:00 +4°C° 0 mm 2 mps 757 mmHg 49%
    06:00 +6°C° 0 mm 2 mps 757 mmHg 46%
    07:00 +7°C° 0 mm 2 mps 757 mmHg 43%
    08:00 +8°C° 0 mm 2 mps 756 mmHg 40%
    09:00 +9°C° 0 mm 2 mps 756 mmHg 37%
    10:00 +10°C° 0 mm 3 mps 756 mmHg 35%
    11:00 +11°C° 0 mm 4 mps 755 mmHg 35%
    12:00 +10°C° 0.1 mm 4 mps 755 mmHg 38%
    13:00 +10°C° 0.1 mm 4 mps 755 mmHg 41%
    14:00 +10°C° 0.1 mm 4 mps 754 mmHg 44%
    15:00 +10°C° 0.1 mm 4 mps 754 mmHg 44%
    16:00 +10°C° 0.1 mm 3 mps 754 mmHg 43%
    17:00 +11°C° 0.1 mm 3 mps 754 mmHg 42%
    18:00 +10°C° 0 mm 2 mps 754 mmHg 46%
    19:00 +9°C° 0 mm 2 mps 754 mmHg 49%
    20:00 +8°C° 0 mm 2 mps 754 mmHg 52%
    21:00 +8°C° 0 mm 2 mps 753 mmHg 54%
    22:00 +7°C° 0 mm 2 mps 753 mmHg 56%
    23:00 +7°C° 0 mm 2 mps 753 mmHg 58%

    Tomorrow, 24 April, Wednesday

    Time Temperature Precipitation Wind Pressure Humidity
    00:00 +7°C° 0 mm 2 mps 753 mmHg 59%
    01:00 +5°C° 0 mm 3 mps 753 mmHg 60%
    02:00 +5°C° 0 mm 3 mps 753 mmHg 61%
    03:00 +5°C° 0 mm 3 mps 752 mmHg 62%
    04:00 +5°C° 0 mm 3 mps 752 mmHg 64%
    05:00 +4°C° 0 mm 3 mps 752 mmHg 65%
    06:00 +7°C° 0 mm 3 mps 752 mmHg 62%
    07:00 +9°C° 0 mm 3 mps 752 mmHg 59%
    08:00 +10°C° 0 mm 3 mps 752 mmHg 56%
    09:00 +12°C° 0 mm 4 mps 751 mmHg 50%
    10:00 +13°C° 0 mm 5 mps 751 mmHg 45%
    11:00 +15°C° 0 mm 6 mps 751 mmHg 40%
    12:00 +15°C° 0 mm 6 mps 750 mmHg 37%
    13:00 +16°C° 0 mm 6 mps 750 mmHg 35%
    14:00 +16°C° 0 mm 6 mps 750 mmHg 32%
    15:00 +16°C° 0 mm 6 mps 749 mmHg 33%
    16:00 +16°C° 0 mm 6 mps 749 mmHg 34%
    17:00 +15°C° 0 mm 5 mps 749 mmHg 36%
    18:00 +14°C° 0 mm 5 mps 748 mmHg 40%
    19:00 +13°C° 0 mm 4 mps 748 mmHg 44%
    20:00 +12°C° 0 mm 3 mps 748 mmHg 48%
    21:00 +12°C° 0 mm 3 mps 748 mmHg 48%
    22:00 +12°C° 0 mm 4 mps 748 mmHg 49%
    23:00 +12°C° 0 mm 4 mps 747 mmHg 50%

    Day after tomorrow, 25 April, Thursday

    Time Temperature Precipitation Wind Pressure Humidity
    00:00 +11°C° 0 mm 4 mps 747 mmHg 51%
    01:00 +10°C° 0 mm 4 mps 747 mmHg 52%
    02:00 +10°C° 0 mm 4 mps 746 mmHg 54%
    03:00 +8°C° 0 mm 4 mps 746 mmHg 58%
    04:00 +7°C° 0 mm 4 mps 746 mmHg 62%
    05:00 +6°C° 0 mm 4 mps 746 mmHg 66%
    06:00 +8°C° 0 mm 4 mps 746 mmHg 64%
    07:00 +9°C° 0 mm 5 mps 746 mmHg 62%
    08:00 +10°C° 0 mm 5 mps 746 mmHg 61%
    09:00 +11°C° 0.3 mm 6 mps 746 mmHg 57%
    10:00 +11°C° 0.3 mm 6 mps 747 mmHg 53%
    11:00 +12°C° 0.3 mm 7 mps 747 mmHg 48%
    12:00 +12°C° 0.2 mm 7 mps 747 mmHg 46%
    13:00 +14°C° 0.2 mm 7 mps 747 mmHg 43%
    14:00 +14°C° 0.2 mm 7 mps 747 mmHg 41%
    15:00 +14°C° 0 mm 6 mps 747 mmHg 42%
    16:00 +13°C° 0 mm 6 mps 746 mmHg 44%
    17:00 +13°C° 0 mm 6 mps 746 mmHg 45%
    18:00 +12°C° 0.2 mm 5 mps 746 mmHg 53%
    19:00 +10°C° 0.2 mm 5 mps 746 mmHg 61%
    20:00 +10°C° 0.2 mm 4 mps 746 mmHg 69%
    21:00 +9°C° 0.2 mm 5 mps 746 mmHg 68%
    22:00 +9°C° 0.2 mm 7 mps 745 mmHg 68%
    23:00 +9°C° 0.2 mm 8 mps 745 mmHg 67%

    26 April, Friday

    Time Temperature Precipitation Wind Pressure Humidity
    00:00 +7°C° 0 mm 8 mps 745 mmHg 70%
    01:00 +6°C° 0 mm 8 mps 745 mmHg 72%
    02:00 +5°C° 0 mm 8 mps 744 mmHg 74%
    03:00 +5°C° 0 mm 7 mps 745 mmHg 76%
    04:00 +4°C° 0 mm 7 mps 745 mmHg 77%
    05:00 +4°C° 0 mm 6 mps 746 mmHg 79%
    06:00 +5°C° 0 mm 5 mps 746 mmHg 77%
    07:00 +5°C° 0 mm 4 mps 747 mmHg 74%
    08:00 +5°C° 0 mm 3 mps 747 mmHg 72%
    09:00 +5°C° 0.1 mm 4 mps 748 mmHg 73%
    10:00 +4°C° 0.1 mm 4 mps 748 mmHg 74%
    11:00 +2°C° 0.1 mm 5 mps 749 mmHg 75%
    12:00 +2°C° 0.1 mm 5 mps 749 mmHg 72%
    13:00 +2°C° 0.1 mm 5 mps 749 mmHg 70%
    14:00 +3°C° 0.1 mm 5 mps 749 mmHg 67%
    15:00 +3°C° 0 mm 5 mps 750 mmHg 64%
    16:00 +4°C° 0 mm 4 mps 750 mmHg 61%
    17:00 +4°C° 0 mm 4 mps 751 mmHg 58%
    18:00 +3°C° 0 mm 3 mps 751 mmHg 57%
    19:00 +4°C° 0 mm 2 mps 752 mmHg 56%
    20:00 +5°C° 0 mm 1 mps 752 mmHg 56%
    21:00 +4°C° 0 mm 1 mps 753 mmHg 58%
    22:00 +3°C° 0 mm 2 mps 753 mmHg 60%
    23:00 +2°C° 0 mm 2 mps 753 mmHg 61%

    27 April, Saturday

    Time Temperature Precipitation Wind Pressure Humidity
    00:00 +1°C° 0 mm 3 mps 752 mmHg 64%
    01:00 +1°C° 0 mm 3 mps 752 mmHg 66%
    02:00 0°C° 0 mm 3 mps 751 mmHg 68%
    03:00 0°C° 0 mm 3 mps 751 mmHg 69%
    04:00 0°C° 0 mm 3 mps 751 mmHg 70%
    05:00 0°C° 0 mm 3 mps 750 mmHg 71%
    06:00 +1°C° 0 mm 4 mps 750 mmHg 65%
    07:00 +2°C° 0 mm 5 mps 750 mmHg 59%
    08:00 +4°C° 0 mm 6 mps 750 mmHg 53%
    09:00 +4°C° 0.1 mm 7 mps 750 mmHg 56%
    10:00 +4°C° 0.1 mm 8 mps 750 mmHg 58%
    11:00 +2°C° 0.1 mm 9 mps 750 mmHg 61%
    12:00 +2°C° 0 mm 9 mps 751 mmHg 54%
    13:00 +2°C° 0 mm 9 mps 751 mmHg 48%
    14:00 +2°C° 0 mm 9 mps 751 mmHg 42%
    15:00 +2°C° 0 mm 8 mps 752 mmHg 41%
    16:00 +1°C° 0 mm 8 mps 753 mmHg 40%
    17:00 +2°C° 0 mm 7 mps 754 mmHg 40%
    18:00 +1°C° 0 mm 6 mps 755 mmHg 43%
    19:00 0°C° 0 mm 5 mps 756 mmHg 45%
    20:00 0°C° 0 mm 3 mps 757 mmHg 48%
    21:00 0°C° 0 mm 3 mps 757 mmHg 50%
    22:00 -1°C° 0 mm 3 mps 758 mmHg 52%
    23:00 -1°C° 0 mm 2 mps 758 mmHg 54%

    28 April, Sunday

    Time Temperature Precipitation Wind Pressure Humidity
    00:00 -1°C° 0 mm 3 mps 758 mmHg 54%
    01:00 -1°C° 0 mm 3 mps 758 mmHg 55%
    02:00 -1°C° 0 mm 3 mps 758 mmHg 55%
    03:00 -2°C° 0 mm 4 mps 758 mmHg 52%
    04:00 -2°C° 0 mm 5 mps 758 mmHg 50%
    05:00 -3°C° 0 mm 6 mps 758 mmHg 48%
    06:00 0°C° 0 mm 7 mps 757 mmHg 43%
    07:00 +2°C° 0 mm 8 mps 757 mmHg 39%
    08:00 +5°C° 0 mm 9 mps 757 mmHg 34%
    09:00 +6°C° 0 mm 9 mps 756 mmHg 33%
    10:00 +8°C° 0 mm 10 mps 756 mmHg 31%
    11:00 +9°C° 0 mm 10 mps 755 mmHg 30%
    12:00 +12°C° 0 mm 10 mps 754 mmHg 29%
    13:00 +13°C° 0 mm 10 mps 753 mmHg 28%
    14:00 +14°C° 0 mm 10 mps 752 mmHg 27%
    15:00 +14°C° 0 mm 10 mps 752 mmHg 29%
    16:00 +14°C° 0 mm 10 mps 751 mmHg 30%
    17:00 +14°C° 0 mm 10 mps 751 mmHg 32%
    18:00 +15°C° 0 mm 9 mps 750 mmHg 35%
    19:00 +13°C° 0 mm 8 mps 750 mmHg 38%
    20:00 +12°C° 0 mm 7 mps 750 mmHg 41%
    21:00 +12°C° 0 mm 8 mps 749 mmHg 41%
    22:00 +12°C° 0 mm 8 mps 748 mmHg 41%
    23:00 +12°C° 0 mm 9 mps 747 mmHg 41%
    Show more